Home   Weather   France   Châlons-en-Champagne   Past weeks
Flag for France

Past Weather in Châlons-en-Champagne, Marne, France — Yesterday and Last 2 Weeks

Currently: 45 °F. Light rain. Mostly cloudy. (Weather station: Chalons-Vatry, France). See more current weather

Past Weather in Châlons-en-Champagne — Graph

°F

Châlons-en-Champagne Temperature Yesterday

Maximum temperature yesterday: 48 °F (at 12:00 pm)
Minimum temperature yesterday: 43 °F (at 2:00 am)
Average temperature yesterday: 46 °F

High & Low Weather Summary for the Past Weeks

 TemperatureHumidityPressure
High48 °F (Feb 1, 12:30 pm)100% (Jan 25, 9:00 am)30.69 "Hg (Jan 25, 9:00 am)
Low25 °F (Jan 29, 5:00 am)61% (Jan 21, 3:00 pm)30.15 "Hg (Jan 27, 2:00 am)
Average37 °F91%30.40 "Hg
* Reported Jan 21 10:00 am — Feb 5 10:00 am, Châlons-en-Champagne. Weather by CustomWeather, © 2023

Note: Actual official high and low records may vary slightly from our data, if they occured in-between our weather recording intervals... More about our weather records

Châlons-en-Champagne Weather History for the Previous 24 Hours

Scroll right to see more
 ConditionsComfort  
Time TempWeatherWind HumidityBarometerVisibility
10:00 am
Sun, Feb 5
45 °FMostly cloudy.9 mph87%30.69 "HgN/A
9:30 am43 °FMostly cloudy.10 mph93%30.69 "HgN/A
9:00 am43 °FClear.8 mph93%30.69 "Hg10 mi
8:30 am43 °FClear.8 mph93%30.69 "Hg10 mi
8:00 am43 °FClear.5 mph93%30.69 "Hg10 mi
7:00 am43 °FOvercast.8 mph93%30.69 "HgN/A
6:30 am43 °FOvercast.10 mph93%30.69 "Hg6 mi
6:00 am43 °FOvercast.8 mph100%30.66 "Hg5 mi
5:30 am43 °FOvercast.9 mph100%30.66 "HgN/A
5:00 am43 °FOvercast.8 mph100%30.66 "HgN/A
4:30 am45 °FOvercast.9 mph93%30.66 "HgN/A
4:00 am43 °FOvercast.7 mph100%30.63 "HgN/A
3:30 am45 °FClear.7 mph93%30.66 "Hg10 mi
3:00 am45 °FClear.8 mph87%30.66 "Hg10 mi
2:30 am45 °FOvercast.12 mph93%30.66 "HgN/A
2:00 am45 °FClear.6 mph93%30.66 "Hg10 mi
12:30 am45 °FClear.8 mph93%30.69 "Hg10 mi
12:00 am45 °FClear.8 mph93%30.66 "Hg10 mi
11:00 pm
Sat, Feb 4
45 °FClear.7 mph100%30.66 "Hg10 mi
10:30 pm45 °FClear.6 mph93%30.66 "Hg10 mi
10:00 pm45 °FOvercast.7 mph100%30.66 "HgN/A
9:30 pm46 °FMostly cloudy.7 mph93%30.66 "HgN/A
9:00 pm46 °FOvercast.7 mph93%30.66 "HgN/A
8:30 pm46 °FMostly cloudy.7 mph93%30.66 "HgN/A
8:00 pm46 °FOvercast.7 mph93%30.66 "HgN/A
7:30 pm46 °FOvercast.6 mph100%30.66 "Hg5 mi
7:00 pm46 °FMostly cloudy.6 mph100%30.66 "Hg5 mi
6:30 pm46 °FPartly sunny.5 mph100%30.63 "Hg5 mi
6:00 pm48 °FBroken clouds.5 mph94%30.63 "Hg6 mi
5:00 pm48 °FBroken clouds.5 mph100%30.63 "HgN/A
4:30 pm48 °FBroken clouds.7 mph100%30.63 "HgN/A
4:00 pm48 °FMostly cloudy.9 mph100%30.63 "HgN/A
3:30 pm48 °FMostly cloudy.8 mph100%30.63 "Hg6 mi
3:00 pm48 °FMostly cloudy.8 mph100%30.63 "Hg6 mi
2:30 pm48 °FLow clouds.8 mph100%30.63 "Hg6 mi
2:00 pm48 °FMostly cloudy.10 mph100%30.63 "Hg4 mi
1:00 pm46 °FFog.10 mph100%30.63 "Hg3 mi
12:30 pm46 °FFog.10 mph100%30.63 "Hg3 mi
12:00 pm48 °FFog.10 mph94%30.63 "Hg3 mi
11:30 am46 °FDrizzle. Fog.9 mph100%30.63 "Hg3 mi
11:00 am46 °FDrizzle. Fog.7 mph100%30.63 "Hg2 mi
Weather by CustomWeather, © 2023

See weather overview